Regional Weather Roundup
Issued by NWS Raleigh/Durham, NC

Home | Current Version | Previous Version | Text Only | Print | Product List | Glossary On
Versions: 1 2 3 4 5 6 7 8 9 10 11 12 13 14 15 16 17 18 19 20 21 22 23 24 25 26 27 28 29 30 31 32 33 34 35 36 37 38 39 40 41 42 43 44 45 46 47 48 49 50
000
ASUS42 KRAH 311210
RWRRAH
NORTH CAROLINA WEATHER ROUNDUP
NATIONAL WEATHER SERVICE RALEIGH NC
800 AM EDT FRI JUL 31 2015

NOTE: "FAIR" INDICATES FEW OR NO CLOUDS BELOW 12,000 FEET WITH NO
SIGNIFICANT WEATHER AND/OR OBSTRUCTIONS TO VISIBILITY.

NCZ001-053-055-056-065-067-311300-
WESTERN NORTH CAROLINA

CITY           SKY/WX    TMP DP  RH WIND       PRES   REMARKS
ASHEVILLE      SUNNY     71  59  65 N10       30.10R
JEFFERSON      SUNNY     64  51  62 NW5       30.14R
MORGANTON      SUNNY     71  65  80 CALM      30.09R
HICKORY        SUNNY     72  61  68 CALM      30.04R
RUTHERFORDTON  PTSUNNY   75  62  64 N6        30.04R
MOUNT AIRY     SUNNY     73  60  65 CALM      30.06R
BOONE          SUNNY     64  55  74 NW8       30.14S
$$

NCZ021-022-025-041-071-084-088-311300-
CENTRAL NORTH CAROLINA

CITY           SKY/WX    TMP DP  RH WIND       PRES   REMARKS
CHARLOTTE      MOSUNNY   77  59  53 N13G20    30.01R
GREENSBORO     PTSUNNY   72  59  63 VRB3      30.02R
WINSTON-SALEM  SUNNY     73  59  61 N5        30.04R
RALEIGH-DURHAM MOSUNNY   75  63  66 VRB3      29.98R
FORT BRAGG     MOSUNNY   78  64  61 N9        29.94R
FAYETTEVILLE   MOSUNNY   79  64  60 N12       29.94R
BURLINGTON     MOSUNNY   75  62  64 VRB5      30.00R
LAURINBURG     MOSUNNY   81  60  48 N9        29.95R
$$

NCZ011-015-027-028-043-044-047-080-103-311300-
NORTHEASTERN NORTH CAROLINA

CITY           SKY/WX    TMP DP  RH WIND       PRES   REMARKS
ROCKY MT-WILSO SUNNY     78  73  84 N9        29.94R
GREENVILLE     SUNNY     79  73  83 NE9       29.94R
WASHINGTON     CLOUDY    77  76  95 N5        29.90S
ELIZABETH CITY CLOUDY    75  73  93 N12       29.91R
MANTEO         MOSUNNY   81  77  86 NW5       29.90R
CAPE HATTERAS  SUNNY     83  76  79 CALM      29.88R
$$

NCZ078-087-090-091-093-098-101-311300-
SOUTHEASTERN NORTH CAROLINA

CITY           SKY/WX    TMP DP  RH WIND       PRES   REMARKS
LUMBERTON      CLOUDY    78  66  66 N8        29.93R
GOLDSBORO      NOT AVBL
KINSTON        MOSUNNY   79  75  89 N9        29.92R
KENANSVILLE    MOSUNNY  N/A N/A N/A N7        29.92S
NEW BERN       PTSUNNY   79  76  90 N3        29.91R
CHERRY POINT   MOSUNNY   82  77  84 N3        29.90R
BEAUFORT       MOSUNNY   81  79  94 NW7       29.89R
JACKSONVILLE   PTSUNNY   78  75  90 CALM      29.90R
WILMINGTON     CLOUDY    79  75  87 CALM      29.90R
$$



USA.gov is the U.S. government's official web portal to all federal, state and local government web resources and services.